Date,TemperatureHighF,TemperatureAvgF,TemperatureLowF,DewpointHighF,DewpointAvgF,DewpointLowF,HumidityHigh,HumidityAvg,HumidityLow,PressureMaxIn,PressureMinIn,WindSpeedMaxMPH,WindSpeedAvgMPH,GustSpeedMaxMPH,PrecipitationSumIn
2013-1-1,30.0,16.5,7.0,16.0,9.8,4.0,90,76,49,30.59,30.42,2,0,6,0.00
2013-1-2,33.0,21.1,9.0,13.0,9.8,5.0,86,63,35,30.66,30.48,4,0,9,0.00
2013-1-3,38.0,19.7,4.0,12.0,5.0,0.0,85,57,20,30.67,30.52,3,0,7,0.00
2013-1-4,45.0,23.3,8.0,18.0,9.4,3.0,85,60,22,30.58,30.33,1,0,4,0.01
2013-1-5,40.0,23.3,10.0,16.0,11.2,6.0,83,63,32,30.61,30.39,5,1,11,0.01
2013-1-6,42.0,21.9,6.0,18.0,10.7,2.0,87,65,30,30.61,30.25,1,0,4,0.00
2013-1-7,51.0,33.4,22.0,25.0,16.0,8.0,79,54,18,30.28,30.01,3,0,6,0.00
2013-1-8,51.0,36.5,23.0,21.0,18.1,17.0,78,51,28,30.40,29.99,8,2,14,0.00
2013-1-9,54.0,33.2,19.0,22.0,18.5,14.0,84,59,23,30.49,30.21,2,0,5,0.00
2013-1-10,39.0,26.4,16.0,22.0,18.0,12.0,85,71,47,30.21,29.69,3,0,6,0.00
2013-1-11,39.0,22.9,9.0,27.0,15.3,5.0,87,74,27,30.12,29.52,8,1,17,0.00
2013-1-12,15.0,8.3,1.0,8.0,3.3,-2.0,90,80,68,30.52,30.11,3,0,9,0.00
2013-1-13,14.0,7.1,0.0,6.0,1.3,-3.0,87,77,58,30.63,30.51,2,0,6,0.00
2013-1-14,14.0,6.4,-1.0,5.0,0.6,-5.0,88,77,60,30.69,30.55,2,0,5,0.00
2013-1-15,30.0,15.2,-3.0,14.0,3.9,-7.0,87,63,40,30.66,30.54,2,0,5,0.00
2013-1-16,53.0,34.8,20.0,27.0,19.4,13.0,78,56,28,30.56,30.40,3,0,8,0.00
2013-1-17,49.0,29.4,15.0,25.0,17.3,11.0,85,64,34,30.69,30.47,2,0,6,0.00
2013-1-18,59.0,36.1,15.0,19.0,8.9,0.0,80,42,9,30.47,30.23,7,1,14,0.00
2013-1-19,59.0,41.4,24.0,14.0,8.7,3.0,53,29,10,30.36,30.22,6,1,13,0.00
2013-1-20,46.0,30.6,18.0,16.0,12.6,9.0,72,50,25,30.49,30.28,5,1,10,0.00
2013-1-21,57.0,31.0,12.0,20.0,12.2,6.0,85,52,16,30.50,30.28,3,0,6,0.00
2013-1-22,59.0,38.1,20.0,17.0,11.0,-2.0,73,36,12,30.32,30.19,3,1,11,0.00
2013-1-23,66.0,47.3,25.0,15.0,1.4,-18.0,55,23,4,30.32,30.16,10,3,21,0.00
2013-1-24,60.0,39.1,21.0,22.0,14.4,7.0,70,42,13,30.26,30.04,4,0,9,0.00
2013-1-25,50.0,36.3,26.0,29.0,24.1,19.0,79,63,43,30.32,30.17,4,0,6,0.00
2013-1-26,51.0,37.6,25.0,34.0,26.3,20.0,84,66,42,30.23,29.89,3,0,5,0.00
2013-1-27,59.0,41.4,30.0,37.0,31.0,22.0,91,69,35,29.89,29.77,5,1,9,0.00
2013-1-28,46.0,31.6,22.0,32.0,24.2,17.0,91,75,52,29.95,29.68,9,1,19,0.00
2013-1-29,32.0,24.7,17.0,24.0,16.4,8.0,93,72,43,30.24,29.91,8,2,20,0.03
2013-1-30,38.0,23.5,8.0,19.0,12.1,5.0,87,64,38,30.24,30.12,7,1,12,0.03
2013-1-31,44.0,32.6,22.0,26.0,22.6,18.0,87,68,43,30.35,30.26,4,1,11,0.00